Billings, MT

6:33 AM MDT on September 24, 2017 (GMT -0600)
Billings Logan International

Weather History for KBIL - April, 2013

Change the Weather History Date:

Wednesday, April 3, 2013

  Actual Average Record
Temperature  
Mean Temperature 52 °F 42 °F  
Max Temperature 66 °F 54 °F 80 °F (1992)
Min Temperature 38 °F 32 °F 7 °F (2002)
Degree Days  
Heating Degree Days 13 22  
Month to date heating degree days 54 68  
Since 1 July heating degree days 5457 5878  
Cooling Degree Days 0 0  
Month to date cooling degree days 0 0  
Year to date cooling degree days 0 0  
Growing Degree Days 4 (Base 50)    
Moisture  
Dew Point 26 °F    
Average Humidity 41    
Maximum Humidity 60    
Minimum Humidity 22    
Precipitation  
Precipitation T in 0.05 in 1.58 in (1955)
Month to date precipitation T 0.14  
Year to date precipitation 1.14 2.16  
Snow  
Snow 0.00 in 0.30 in 15.40 in (1955)
Month to date snowfall 0.0 1.0  
Since 1 July snowfall 34.8 45.7  
Snow Depth 0.00 in    
Sea Level Pressure  
Sea Level Pressure 29.99 in    
Wind  
Wind Speed 13 mph (NW)    
Max Wind Speed 24 mph    
Max Gust Speed 30 mph    
Visibility 10 miles    
Events      
T = Trace of Precipitation, MM = Missing Value Source: NWS Daily Summary

Daily Weather History Graph

Daily Weather History Graph

Search for Another Location

Airport or City:

Trip Planner

Search our weather history database for the weather conditions in past years. The results will help you decide how hot, cold, wet, or windy it might be!

Date:

Astronomy

Apr. 03, 2013 Rise Set
Actual Time 6:49 AM MDT 7:45 PM MDT
Civil Twilight 6:19 AM MDT 8:15 PM MDT
Nautical Twilight 5:43 AM MDT 8:52 PM MDT
Astronomical Twilight 5:05 AM MDT 9:30 PM MDT
Moon 2:53 AM MDT (4/3) 12:42 PM MDT (4/3)
Length of Visible Light 13h 56m
Length of Day
12h 55m
Last Quarter, 44% of the Moon is Illuminated
Apr 3
Last Quarter
Apr 10
New
Apr 18
First Quarter
Apr 25
Full
May 2
Last Quarter

Hourly Weather History & Observations

Time (MDT) Temp. Windchill Dew Point Humidity Pressure Visibility Wind Dir Wind Speed Gust Speed Precip Events Conditions
12:53 AM 55.0 °F - 19.0 °F 24% 29.86 in 10.0 mi WSW 15.0 mph - N/A   Clear
1:53 AM 55.0 °F - 19.0 °F 24% 29.87 in 10.0 mi West 15.0 mph - N/A   Clear
2:53 AM 55.9 °F - 19.0 °F 24% 29.88 in 10.0 mi WSW 13.8 mph - N/A   Clear
3:53 AM 53.1 °F - 21.0 °F 29% 29.89 in 10.0 mi West 10.4 mph - N/A   Mostly Cloudy
4:53 AM 52.0 °F - 24.1 °F 34% 29.91 in 10.0 mi WSW 11.5 mph - N/A   Mostly Cloudy
5:53 AM 46.9 °F - 24.1 °F 41% 29.94 in 10.0 mi West 12.7 mph - 0.00 in   Partly Cloudy
6:53 AM 46.9 °F - 26.1 °F 44% 29.96 in 10.0 mi West 12.7 mph - N/A   Partly Cloudy
7:53 AM 50.0 °F - 26.1 °F 39% 29.98 in 10.0 mi WSW 10.4 mph - N/A   Partly Cloudy
8:53 AM 50.0 °F - 27.0 °F 41% 30.01 in 10.0 mi SSW 9.2 mph - N/A   Partly Cloudy
9:53 AM 60.1 °F - 27.0 °F 28% 30.00 in 10.0 mi NW 17.3 mph - N/A   Partly Cloudy
10:53 AM 62.1 °F - 27.0 °F 26% 30.00 in 10.0 mi NW 19.6 mph 26.5 mph N/A   Partly Cloudy
11:53 AM 64.0 °F - 27.0 °F 25% 30.00 in 10.0 mi NW 19.6 mph 26.5 mph N/A   Partly Cloudy
12:53 PM 64.9 °F - 27.0 °F 24% 30.00 in 10.0 mi NNW 12.7 mph 25.3 mph N/A   Scattered Clouds
1:53 PM 64.9 °F - 26.1 °F 23% 29.99 in 10.0 mi NNW 15.0 mph - N/A   Scattered Clouds
2:53 PM 64.9 °F - 27.0 °F 24% 29.98 in 10.0 mi NNW 15.0 mph - N/A   Scattered Clouds
3:53 PM 66.0 °F - 26.1 °F 22% 29.99 in 10.0 mi WNW 8.1 mph - N/A   Scattered Clouds
4:53 PM 62.1 °F - 30.0 °F 30% 30.01 in 10.0 mi NE 13.8 mph - N/A   Mostly Cloudy
5:53 PM 59.0 °F - 30.0 °F 33% 30.04 in 10.0 mi NE 18.4 mph 24.2 mph N/A   Mostly Cloudy
6:53 PM 55.9 °F - 30.0 °F 37% 30.06 in 10.0 mi ENE 19.6 mph - N/A   Scattered Clouds
7:53 PM 51.1 °F - 28.9 °F 43% 30.09 in 10.0 mi ENE 12.7 mph 23.0 mph N/A   Scattered Clouds
8:53 PM 48.0 °F - 28.9 °F 48% 30.11 in 10.0 mi East 10.4 mph - N/A   Partly Cloudy
9:53 PM 45.0 °F 41.8 °F 28.9 °F 53% 30.09 in 10.0 mi ENE 5.8 mph - N/A   Partly Cloudy
10:53 PM 42.1 °F 38.4 °F 28.0 °F 58% 30.09 in 10.0 mi NNE 5.8 mph - N/A   Partly Cloudy
11:53 PM 41.0 °F 38.0 °F 28.0 °F 60% 30.06 in 10.0 mi North 4.6 mph - N/A   Partly Cloudy